Regional Weather Roundup
Issued by NWS San Angelo, TX

Home | Current Version | Previous Version | Text Only | Print | Product List | Glossary On
Versions: 1 2 3 4 5 6 7 8 9 10 11 12 13 14 15 16 17 18 19 20 21 22 23 24 25 26 27 28 29 30 31 32 33 34 35 36 37 38 39 40 41 42 43 44 45 46 47 48 49 50
000
ASUS44 KSJT 100610
RWRSJT
WEST CENTRAL TEXAS REGIONAL WEATHER ROUNDUP
NATIONAL WEATHER SERVICE SAN ANGELO TX
100 AM CDT THU JUL 10 2014

NOTE: "FAIR" INDICATES FEW OR NO CLOUDS BELOW 12,000 FEET WITH NO
SIGNIFICANT WEATHER AND/OR OBSTRUCTIONS TO VISIBILITY.

TXZ049-054-064>066-071>073-076>078-098-099-113-114-127-128-139-140-
154-155-168>170-100700
...LOCATIONS ACROSS WEST CENTRAL TEXAS...

CITY           SKY/WX    TMP DP  RH WIND       PRES   REMARKS
SAN ANGELO     CLEAR     81  61  50 S9        30.04R
ABILENE        CLEAR     83  60  45 S14       30.02S
DYESS AFB      CLEAR     83  62  49 S15       30.01S
JUNCTION       CLEAR     79  65  62 S6        30.06R
SWEETWATER     CLEAR     80  58  46 S9        30.07F
BROWNWOOD      CLOUDY    77  57  50 S6        30.03S
COLEMAN        CLEAR     81  60  48 S10       30.04S
SONORA         NOT AVBL
OZONA          FAIR      77  59  53 S9        30.09S
BRADY          CLEAR     79  63  57 SE6       30.05F
$$

TEXAS PANHANDLE/OKLAHOMA PANHANDLE

CITY           SKY/WX    TMP DP  RH WIND       PRES   REMARKS
AMARILLO       CLOUDY    76  58  53 SE9       30.07
BORGER         CLOUDY    81  61  50 VRB6      30.05R
CANADIAN       CLOUDY    81  65  59 S17G25    29.98F
DALHART        MOCLDY    71  57  61 CALM      30.08F
DUMAS          MOCLDY    73  55  52 CALM      30.07R
GUYMON         NOT AVBL
HEREFORD       CLOUDY    72  61  70 SE7       30.09S
PAMPA          CLOUDY    77  61  58 S15       30.06R
PERRYTON       MOCLDY    78  63  60 SW10      30.04R
$$

SOUTHERN PANHANDLE/SOUTH PLAINS/ROLLING PLAINS

CITY           SKY/WX    TMP DP  RH WIND       PRES   REMARKS
LUBBOCK        MOCLDY    80  58  46 S15       30.07S
SNYDER         CLEAR     78  58  49 S6        30.05S
CHILDRESS      CLOUDY    79  63  57 SE12      29.99
SEMINOLE       CLEAR     74  56  53 S6        30.10S
$$

PERMIAN BASIN

CITY           SKY/WX    TMP DP  RH WIND       PRES   REMARKS
MIDLAND        CLEAR     81  59  47 S10       30.06S
ODESSA         CLEAR     80  60  50 S7        30.08S
WINK           CLEAR     81  61  50 SE12      30.03S
$$

FAR WEST/SOUTHWEST MOUNTAINS/TRANS PECOS

CITY           SKY/WX    TMP DP  RH WIND       PRES   REMARKS
ALPINE         CLEAR     73  58  58 S12G18    30.19S
DRYDEN           N/A     83  58  42 SE9       30.02S
EL PASO        PTCLDY    84  53  34 E15G23    30.02S
FORT STOCKTON  CLEAR     78  58  49 SE14      30.05F
GUADALUPE PASS PTCLDY    71  56  58 NE25      30.19F
MARFA          CLEAR     66  61  82 S5        30.19S
PECOS          CLEAR     80  60  50 SE10      30.02S
$$

DALLAS/FORT WORTH METROPLEX

CITY           SKY/WX    TMP DP  RH WIND       PRES   REMARKS
DFW AIRPORT    PTCLDY    85  61  44 S10       29.98S
FTW MEACHAM    CLEAR     85  61  44 S10G22    29.98S
DAL-EXECUTIVE  CLEAR     84  62  47 S8        30.00R
GRAND PRAIRIE  CLEAR     83  60  45 S8        30.00S
ADDISON        CLEAR     86  59  39 S7        30.01S
MESQUITE       CLEAR     76  67  73 S5        30.00R
LANCASTER      CLEAR     77  63  61 CALM      30.00S
$$

NORTH CENTRAL TEXAS

CITY           SKY/WX    TMP DP  RH WIND       PRES   REMARKS
SHRMAN/DENISON CLEAR     78  71  77 E8        30.01S
GAINESVILLE    CLEAR     77  71  82 E5        30.02R
BRIDGEPORT     CLEAR     82  56  42 S9        30.00S
DENTON         CLEAR     80  64  58 S7        29.99
WAXAHACHIE     CLEAR     78  62  57 S7        30.01S
GRANBURY       CLEAR     82  59  46 SE8       30.00S
$$

WESTERN NORTH TEXAS

CITY           SKY/WX    TMP DP  RH WIND       PRES   REMARKS
WICHITA FALLS  MOCLDY    78  68  71 E5        29.97S
VERNON         CLOUDY    84  63  49 SE9       29.97F
BRECKENRIDGE   CLEAR     85  56  37 S10       29.99R
COMANCHE       CLEAR     80  56  44 S13       30.03S
$$

CENTRAL AND SOUTH CENTRAL TEXAS

CITY           SKY/WX    TMP DP  RH WIND       PRES   REMARKS
AUSTIN/BERGSTM CLEAR     75  69  81 S6        30.03
WACO           CLEAR     81  67  62 S14       30.01S
HILLSBORO      CLEAR     81  63  54 S9        30.01S
TEMPLE         CLEAR     79  63  57 S9        30.03S
KILLEEN-GRAY   CLEAR     75  61  60 S8        30.04S
FORT HOOD      CLEAR     80  65  59 SE6       30.03S
GEORGETOWN     CLEAR     82  66  57 S8        30.05S
LAGO VISTA     FAIR      80  66  63 S7        30.07S
SAN MARCOS     CLEAR     77  64  65 S7        30.06S
NEW BRAUNFELS  CLEAR     74  68  81 S7        30.03S
RANDOLPH AFB   CLEAR     77  68  74 S7        30.05R
SAN ANTONIO    CLEAR     79  69  71 S10       30.05R
STINSON        CLEAR     46  32  58 SE6       30.02S
PLEASANTON     NOT AVBL
LA GRANGE      CLEAR     78  74  88 S3        30.02S
GIDDINGS       CLEAR     77  70  80 CALM      30.08S
$$

EAST TEXAS

CITY           SKY/WX    TMP DP  RH WIND       PRES   REMARKS
PARIS          PTCLDY    75  70  83 E9        30.02F
CLARKSVILLE    PTCLDY    77  73  87 CALM      30.02S
TYLER          CLEAR     80  68  66 S8        30.01S
LONGVIEW       PTCLDY    78  70  76 S7        30.00S
PALESTINE      CLEAR     77  67  69 S3        30.03S
NACOGDOCHES    CLEAR     75  70  83 S3        30.03S
$$

TEXAS HILL COUNTRY AND EDWARDS PLATEAU

CITY           SKY/WX    TMP DP  RH WIND       PRES   REMARKS
LLANO          CLEAR     81  66  61 CALM      30.07R
HORSESHOE BAY  FAIR      80  65  60 S8        30.04S
KERRVILLE      CLEAR     76  70  80 S8        30.07S
FREDERICKSBRG  CLEAR     76  66  70 S7        30.07S
ROCKSPRINGS    CLEAR     77  64  65 SE13      30.10F
HONDO          CLEAR     76  68  76 SE7       30.05S
UVALDE         CLEAR     79  67  66 SE7       30.04S
DEL RIO        CLEAR     83  53  35 SE9       30.00
$$

SOUTHEAST TEXAS

CITY           SKY/WX    TMP DP  RH WIND       PRES   REMARKS
COLLEGE STN    CLEAR     79  70  74 S6        30.03
CALDWELL       CLEAR     77  72  83 S7        30.06F
CROCKETT       CLEAR     79  75  89 CALM      30.06S
BRENHAM        CLEAR     78  72  82 S6        30.04S
HUNTSVILLE     CLEAR     80  71  74 S7        30.04S
CONROE         CLEAR     78  73  84 S7        30.04F
HOUSTON BUSH   PTCLDY    80  74  81 S5        30.04S
HOUSTON HOBBY  PTCLDY    79  73  82 S5        30.03F
PERLAND        CLEAR     79  73  82 CALM      30.05S
WHARTON        CLEAR     75  73  93 S3        30.04F
$$

THE UPPER TEXAS COAST

CITY           SKY/WX    TMP DP  RH WIND       PRES   REMARKS
ORANGE         CLEAR     77  77 100 CALM      30.05F
PORT ARTHUR    CLEAR     77  74  90 CALM      30.04S
GALVESTON      PTCLDY    82  75  79 S8        30.04F
ANGLETON       PTCLDY    75  73  93 CALM      30.03F
BAY CITY       PTCLDY    78  77  96 CALM      30.03F
$$

TEXAS COASTAL BEND, RIO GRANDE PLAINS DEEP SOUTH TEXAS

CITY           SKY/WX    TMP DP  RH WIND       PRES   REMARKS
VICTORIA       CLEAR     77  75  93 S6        30.03F
BEEVILLE       FAIR      74  73  97 SE5       30.03S
ROCKPORT       PTCLDY    81  74  79 S7        30.01F
PORT ARANSAS   MOCLDY    81  76  85 S12       30.01F
PORT LAVACA    CLEAR     76  74  92 S5        30.02F
CORPUS CHRISTI MOCLDY    76  73  91 S6        30.02F
KINGSVILLE NAS PTCLDY    78  75  90 SE6       30.01F
COTULLA        CLEAR     80  69  69 SE8       30.01
LAREDO         MOCLDY    83  64  52 SE9       30.02F
BROWNSVILLE    CLOUDY    74  71  91 CALM      30.02S
PORT ISABEL    CLOUDY    76  68  76 S3        30.01F
HEBBRONVILLE   CLOUDY    81  67  64 SE12      30.03S
MCALLEN        MOCLDY    76  71  85 E3        30.00F
WESLACO        NOT AVBL
FALFURRIAS     MOCLDY    73  69  85 SE5       30.01S
EDINBURG       MOCLDY    78  68  70 SE3       30.01F
$$


USA.gov is the U.S. government's official web portal to all federal, state and local government web resources and services.